�ϑ��_��,����,�C��[��],�C�� �i�����,���x[%RH],���x �i�����,���n�C��[hPa],���n�C�� �i�����,�C�ʋC��[hPa],�C�ʋC�� �i�����,����[m/s],���� �i�����,����,���� �i�����,�ő�u�ԕ���[m/s],�ő�u�ԕ��� �i�����,�ő�u�ԕ���������,�ő�u�ԕ��������� �i�����,����[W/�u],���� �i�����,���J,���J �i�����,1���ԉJ��[mm/h],1���ԉJ�� �i�����,�ϐ��[cm],�ϐ�� �i�����,�~���[cm/h],�~��� �i�����,����[m],���� �i�����,���ʕω�,���ʕω� �i�����
�k�C���X�y�[�X�|�[�g(�����),2023/06/01 01:00:00,6.8,0,82,0,1006.3,0,1009.2,0,2.0,0,�쐼,0,2.9,0,�쐼,0,0,0,�Ȃ�,0,0.0,0,,,,,,,,
�k�C���X�y�[�X�|�[�g(�����),2023/06/01 02:00:00,6.1,0,85,0,1006.4,0,1009.4,0,1.3,0,��,0,2.6,0,���쐼,0,0,0,�Ȃ�,0,0.0,0,,,,,,,,
�k�C���X�y�[�X�|�[�g(�����),2023/06/01 03:00:00,5.3,0,89,0,1006.3,0,1009.3,0,1.8,0,���쐼,0,2.8,0,�쐼,0,0,0,�Ȃ�,0,0.0,0,,,,,,,,
�k�C���X�y�[�X�|�[�g(�����),2023/06/01 04:00:00,4.8,0,89,0,1006.3,0,1009.3,0,2.3,0,���쐼,0,3.2,0,���쐼,0,0,0,�Ȃ�,0,0.0,0,,,,,,,,
�k�C���X�y�[�X�|�[�g(�����),2023/06/01 05:00:00,6.2,0,88,0,1006.6,0,1009.6,0,2.5,0,���쐼,0,3.0,0,�쐼,0,30,0,�Ȃ�,0,0.0,0,,,,,,,,
�k�C���X�y�[�X�|�[�g(�����),2023/06/01 06:00:00,11.3,0,78,0,1007.0,0,1009.9,0,1.0,0,��,0,2.9,0,���쐼,0,110,0,�Ȃ�,0,0.0,0,,,,,,,,
�k�C���X�y�[�X�|�[�g(�����),2023/06/01 07:00:00,14.8,0,65,0,1007.0,0,1009.9,0,1.1,0,��,0,2.5,0,�쓌,0,246,0,�Ȃ�,0,0.0,0,,,,,,,,
�k�C���X�y�[�X�|�[�g(�����),2023/06/01 08:00:00,15.1,0,57,0,1006.8,0,1009.7,0,2.0,0,���쓌,0,2.8,0,�쓌,0,376,0,�Ȃ�,0,0.0,0,,,,,,,,
�k�C���X�y�[�X�|�[�g(�����),2023/06/01 09:00:00,15.5,0,47,0,1006.4,0,1009.2,0,3.2,0,��쓌,0,4.6,0,�쓌,0,712,0,�Ȃ�,0,0.0,0,,,,,,,,
�k�C���X�y�[�X�|�[�g(�����),2023/06/01 10:00:00,16.0,0,49,0,1006.2,0,1009.0,0,3.0,0,�쓌,0,5.8,0,�쓌,0,767,0,�Ȃ�,0,0.0,0,,,,,,,,
�k�C���X�y�[�X�|�[�g(�����),2023/06/01 11:00:00,17.2,0,51,0,1005.6,0,1008.4,0,2.9,0,���쓌,0,4.8,0,���쓌,0,711,0,�Ȃ�,0,0.0,0,,,,,,,,
�k�C���X�y�[�X�|�[�g(�����),2023/06/01 12:00:00,23.7,0,30,0,1004.6,0,1007.4,0,7.0,0,��,0,12.6,0,��,0,1115,0,�Ȃ�,0,0.0,0,,,,,,,,
�k�C���X�y�[�X�|�[�g(�����),2023/06/01 13:00:00,23.8,0,30,0,1004.2,0,1007.0,0,8.5,0,�쐼,0,12.5,0,���쐼,0,1075,0,�Ȃ�,0,0.0,0,,,,,,,,
�k�C���X�y�[�X�|�[�g(�����),2023/06/01 14:00:00,22.6,0,34,0,1003.8,0,1006.6,0,8.9,0,��,0,13.8,0,���쐼,0,936,0,�Ȃ�,0,0.0,0,,,,,,,,
�k�C���X�y�[�X�|�[�g(�����),2023/06/01 15:00:00,22.3,0,33,0,1003.8,0,1006.6,0,10.1,0,���쐼,0,16.0,0,���쐼,0,769,0,�Ȃ�,0,0.0,0,,,,,,,,
�k�C���X�y�[�X�|�[�g(�����),2023/06/01 16:00:00,21.8,0,32,0,1003.8,0,1006.6,0,10.9,0,�쐼,0,15.9,0,���쐼,0,541,0,�Ȃ�,0,0.0,0,,,,,,,,
�k�C���X�y�[�X�|�[�g(�����),2023/06/01 17:00:00,20.1,0,40,0,1004.3,0,1007.1,0,7.9,0,�쐼,0,14.7,0,���쐼,0,295,0,�Ȃ�,0,0.0,0,,,,,,,,
�k�C���X�y�[�X�|�[�g(�����),2023/06/01 18:00:00,19.3,0,39,0,1004.4,0,1007.2,0,6.0,0,�쐼,0,12.6,0,�쐼,0,163,0,�Ȃ�,0,0.0,0,,,,,,,,
�k�C���X�y�[�X�|�[�g(�����),2023/06/01 19:00:00,18.0,0,38,0,1003.9,0,1006.7,0,5.0,0,�쐼,0,9.6,0,���쐼,0,47,0,�Ȃ�,0,0.0,0,,,,,,,,
�k�C���X�y�[�X�|�[�g(�����),2023/06/01 20:00:00,14.7,0,62,0,1004.4,0,1007.3,0,3.8,0,��쐼,0,7.3,0,�쐼,0,0,0,�Ȃ�,0,0.0,0,,,,,,,,
�k�C���X�y�[�X�|�[�g(�����),2023/06/01 21:00:00,14.5,0,73,0,1004.1,0,1007.0,0,4.8,0,��쐼,0,7.6,0,��,0,0,0,�Ȃ�,0,0.0,0,,,,,,,,
�k�C���X�y�[�X�|�[�g(�����),2023/06/01 22:00:00,13.0,0,79,0,1003.8,0,1006.7,0,2.7,0,�쐼,0,7.4,0,��쐼,0,0,0,�Ȃ�,0,0.0,0,,,,,,,,
�k�C���X�y�[�X�|�[�g(�����),2023/06/01 23:00:00,12.4,0,82,0,1003.3,0,1006.2,0,0.8,0,��,0,3.7,0,�쐼,0,0,0,�Ȃ�,0,0.0,0,,,,,,,,
�k�C���X�y�[�X�|�[�g(�����),2023/06/02 00:00:00,12.9,0,81,0,1002.6,0,1005.5,0,2.6,0,��,0,4.1,0,��,0,0,0,�Ȃ�,0,0.0,0,,,,,,,,
�k�C���X�y�[�X�|�[�g(�����),2023/06/02 01:00:00,12.3,0,85,0,1001.8,0,1004.7,0,2.2,0,���쐼,0,4.1,0,�쐼,0,0,0,�Ȃ�,0,0.0,0,,,,,,,,
�k�C���X�y�[�X�|�[�g(�����),2023/06/02 02:00:00,13.3,0,71,0,1001.6,0,1004.5,0,2.1,0,��쐼,0,2.9,0,��쐼,0,0,0,�Ȃ�,0,0.0,0,,,,,,,,
�k�C���X�y�[�X�|�[�g(�����),2023/06/02 03:00:00,12.4,0,76,0,1001.5,0,1004.4,0,1.9,0,��,0,3.5,0,��쓌,0,0,0,�Ȃ�,0,0.0,0,,,,,,,,
�k�C���X�y�[�X�|�[�g(�����),2023/06/02 04:00:00,12.0,0,76,0,1001.5,0,1004.4,0,1.5,0,��쓌,0,3.5,0,�쓌,0,0,0,�Ȃ�,0,0.0,0,,,,,,,,
�k�C���X�y�[�X�|�[�g(�����),2023/06/02 05:00:00,11.8,0,80,0,1001.5,0,1004.4,0,1.2,0,���k��,0,3.5,0,�k�k��,0,26,0,����,0,0.0,0,,,,,,,,
�k�C���X�y�[�X�|�[�g(�����),2023/06/02 06:00:00,17.4,0,53,0,1001.0,0,1003.8,0,3.5,0,�쐼,0,6.5,0,�쐼,0,105,0,�Ȃ�,0,0.0,0,,,,,,,,
�k�C���X�y�[�X�|�[�g(�����),2023/06/02 07:00:00,14.4,0,54,0,1001.2,0,1004.0,0,3.6,0,��,0,8.2,0,�쐼,0,209,0,�Ȃ�,0,0.0,0,,,,,,,,
�k�C���X�y�[�X�|�[�g(�����),2023/06/02 08:00:00,17.7,0,57,0,1001.0,0,1003.8,0,4.9,0,��쐼,0,8.8,0,���쐼,0,338,0,�Ȃ�,0,0.0,0,,,,,,,,
�k�C���X�y�[�X�|�[�g(�����),2023/06/02 09:00:00,13.5,0,68,0,1000.8,0,1003.7,0,6.0,0,��,0,9.4,0,��,0,399,0,�Ȃ�,0,0.0,0,,,,,,,,
�k�C���X�y�[�X�|�[�g(�����),2023/06/02 10:00:00,18.3,0,56,0,1000.6,0,1003.4,0,5.7,0,��쐼,0,10.0,0,��,0,598,0,�Ȃ�,0,0.0,0,,,,,,,,
�k�C���X�y�[�X�|�[�g(�����),2023/06/02 11:00:00,16.3,0,65,0,1000.4,0,1003.2,0,5.0,0,��쐼,0,9.3,0,��,0,604,0,�Ȃ�,0,0.0,0,,,,,,,,
�k�C���X�y�[�X�|�[�g(�����),2023/06/02 12:00:00,13.5,0,84,0,999.8,0,1002.7,0,2.6,0,��쓌,0,8.5,0,��,0,176,0,�Ȃ�,0,0.0,0,,,,,,,,
�k�C���X�y�[�X�|�[�g(�����),2023/06/02 13:00:00,16.4,0,69,0,999.1,0,1001.9,0,4.1,0,�쓌,0,6.0,0,��쓌,0,426,0,�Ȃ�,0,0.0,0,,,,,,,,
�k�C���X�y�[�X�|�[�g(�����),2023/06/02 14:00:00,13.7,0,88,0,998.3,0,1001.1,0,4.9,0,��,0,9.3,0,�쓌,0,398,0,����,0,0.0,0,,,,,,,,
�k�C���X�y�[�X�|�[�g(�����),2023/06/02 15:00:00,13.2,0,97,0,997.7,0,1000.5,0,3.8,0,��쓌,0,6.8,0,��,0,165,0,����,0,0.0,0,,,,,,,,
�k�C���X�y�[�X�|�[�g(�����),2023/06/02 16:00:00,13.6,0,100,0,996.9,0,999.7,0,3.9,0,��,0,7.0,0,��,0,111,0,����,0,0.0,0,,,,,,,,
�k�C���X�y�[�X�|�[�g(�����),2023/06/02 17:00:00,12.5,0,100,0,996.4,0,999.3,0,3.3,0,��쓌,0,8.6,0,�쓌,0,42,0,����,0,1.0,0,,,,,,,,
�k�C���X�y�[�X�|�[�g(�����),2023/06/02 18:00:00,13.4,0,100,0,995.0,0,997.8,0,1.4,0,���쓌,0,5.5,0,��,0,17,0,����,0,1.0,0,,,,,,,,
�k�C���X�y�[�X�|�[�g(�����),2023/06/02 19:00:00,13.0,0,100,0,993.7,0,996.5,0,2.2,0,�k�k��,0,3.2,0,��,0,0,0,����,0,1.0,0,,,,,,,,
�k�C���X�y�[�X�|�[�g(�����),2023/06/02 20:00:00,14.3,0,100,0,992.6,0,995.4,0,1.6,0,�k�k��,0,3.0,0,�k�k��,0,0,0,�Ȃ�,0,0.0,0,,,,,,,,
�k�C���X�y�[�X�|�[�g(�����),2023/06/02 21:00:00,14.6,0,100,0,991.8,0,994.6,0,0.9,0,�k�k��,0,2.5,0,�k��,0,0,0,����,0,0.0,0,,,,,,,,
�k�C���X�y�[�X�|�[�g(�����),2023/06/02 22:00:00,13.6,0,100,0,989.7,0,992.5,0,0.8,0,�k��,0,2.6,0,��,0,0,0,����,0,2.5,0,,,,,,,,
�k�C���X�y�[�X�|�[�g(�����),2023/06/02 23:00:00,14.0,0,100,0,988.4,0,991.2,0,1.0,0,��,0,1.8,0,��,0,0,0,����,0,0.5,0,,,,,,,,
�k�C���X�y�[�X�|�[�g(�����),2023/06/03 00:00:00,13.4,0,100,0,987.2,0,990.0,0,3.6,0,���k��,0,5.2,0,�k��,0,0,0,�Ȃ�,0,0.5,0,,,,,,,,
�k�C���X�y�[�X�|�[�g(�����),2023/06/03 01:00:00,12.5,0,100,0,986.8,0,989.6,0,3.1,0,�k��,0,7.9,0,�k��,0,0,0,����,0,2.0,0,,,,,,,,
�k�C���X�y�[�X�|�[�g(�����),2023/06/03 02:00:00,13.0,0,100,0,986.2,0,989.0,0,4.6,0,�k��,0,8.4,0,�k��,0,0,0,�Ȃ�,0,1.5,0,,,,,,,,
�k�C���X�y�[�X�|�[�g(�����),2023/06/03 03:00:00,13.3,0,100,0,985.7,0,988.5,0,1.0,0,�k��,0,6.3,0,�k��,0,0,0,����,0,1.5,0,,,,,,,,
�k�C���X�y�[�X�|�[�g(�����),2023/06/03 04:00:00,13.5,0,100,0,986.1,0,988.9,0,1.7,0,��,0,3.9,0,���k��,0,0,0,�Ȃ�,0,0.0,0,,,,,,,,
�k�C���X�y�[�X�|�[�g(�����),2023/06/03 05:00:00,13.7,0,100,0,987.2,0,990.0,0,2.6,0,�쐼,0,3.7,0,���쐼,0,28,0,�Ȃ�,0,0.0,0,,,,,,,,
�k�C���X�y�[�X�|�[�g(�����),2023/06/03 06:00:00,12.9,0,100,0,987.5,0,990.3,0,1.7,0,��쐼,0,6.7,0,��,0,91,0,�Ȃ�,0,0.0,0,,,,,,,,
�k�C���X�y�[�X�|�[�g(�����),2023/06/03 07:00:00,15.5,0,100,0,987.6,0,990.4,0,0.5,0,���k��,0,2.1,0,�쐼,0,162,0,�Ȃ�,0,0.0,0,,,,,,,,
�k�C���X�y�[�X�|�[�g(�����),2023/06/03 08:00:00,18.0,0,90,0,988.8,0,991.6,0,1.0,0,�k�k��,0,2.4,0,�k�k��,0,281,0,�Ȃ�,0,0.0,0,,,,,,,,
�k�C���X�y�[�X�|�[�g(�����),2023/06/03 09:00:00,18.7,0,77,0,989.2,0,992.0,0,1.7,0,�k��,0,6.3,0,��,0,579,0,�Ȃ�,0,0.0,0,,,,,,,,
�k�C���X�y�[�X�|�[�g(�����),2023/06/03 10:00:00,14.8,0,78,0,990.1,0,992.9,0,3.8,0,��,0,5.5,0,��,0,542,0,�Ȃ�,0,0.0,0,,,,,,,,
�k�C���X�y�[�X�|�[�g(�����),2023/06/03 11:00:00,15.5,0,76,0,989.9,0,992.7,0,3.9,0,��,0,7.4,0,��,0,444,0,�Ȃ�,0,0.0,0,,,,,,,,
�k�C���X�y�[�X�|�[�g(�����),2023/06/03 12:00:00,13.6,0,82,0,990.2,0,993.0,0,3.5,0,��,0,6.6,0,���k��,0,304,0,����,0,0.0,0,,,,,,,,
�k�C���X�y�[�X�|�[�g(�����),2023/06/03 13:00:00,13.5,0,82,0,990.9,0,993.7,0,1.7,0,�k��,0,6.2,0,��,0,281,0,����,0,0.5,0,,,,,,,,
�k�C���X�y�[�X�|�[�g(�����),2023/06/03 14:00:00,12.8,0,92,0,991.2,0,994.0,0,1.8,0,���k��,0,4.4,0,�k�k��,0,77,0,����,0,1.0,0,,,,,,,,
�k�C���X�y�[�X�|�[�g(�����),2023/06/03 15:00:00,13.6,0,86,0,991.1,0,993.9,0,3.0,0,��,0,4.3,0,��,0,279,0,�Ȃ�,0,0.0,0,,,,,,,,
�k�C���X�y�[�X�|�[�g(�����),2023/06/03 16:00:00,13.1,0,88,0,991.7,0,994.5,0,1.4,0,�k��,0,4.3,0,���쓌,0,229,0,�Ȃ�,0,0.0,0,,,,,,,,
�k�C���X�y�[�X�|�[�g(�����),2023/06/03 17:00:00,12.6,0,97,0,992.9,0,995.7,0,3.4,0,�k�k��,0,5.5,0,�k�k��,0,28,0,����,0,0.5,0,,,,,,,,
�k�C���X�y�[�X�|�[�g(�����),2023/06/03 18:00:00,11.0,0,100,0,993.8,0,996.7,0,2.8,0,�k�k��,0,6.8,0,�k�k��,0,12,0,����,0,3.5,0,,,,,,,,
�k�C���X�y�[�X�|�[�g(�����),2023/06/03 19:00:00,10.2,0,93,0,995.1,0,998.0,0,3.9,0,�k�k��,0,8.2,0,�k�k��,0,0,0,�Ȃ�,0,0.5,0,,,,,,,,
�k�C���X�y�[�X�|�[�g(�����),2023/06/03 20:00:00,9.8,0,92,0,996.0,0,998.9,0,2.9,0,�k��,0,6.9,0,�k��,0,0,0,�Ȃ�,0,0.5,0,,,,,,,,
�k�C���X�y�[�X�|�[�g(�����),2023/06/03 21:00:00,9.5,0,92,0,996.4,0,999.3,0,2.7,0,�k��,0,5.2,0,�k��,0,0,0,�Ȃ�,0,0.0,0,,,,,,,,
�k�C���X�y�[�X�|�[�g(�����),2023/06/03 22:00:00,9.8,0,94,0,996.5,0,999.4,0,2.0,0,�k��,0,3.9,0,�k��,0,0,0,�Ȃ�,0,0.0,0,,,,,,,,
�k�C���X�y�[�X�|�[�g(�����),2023/06/03 23:00:00,9.4,0,94,0,996.6,0,999.5,0,1.5,0,�k��,0,3.4,0,�k��,0,0,0,�Ȃ�,0,0.0,0,,,,,,,,
�k�C���X�y�[�X�|�[�g(�����),2023/06/04 00:00:00,7.8,0,100,0,996.6,0,999.5,0,0.3,0,�k,0,2.8,0,���k��,0,0,0,�Ȃ�,0,0.0,0,,,,,,,,
�k�C���X�y�[�X�|�[�g(�����),2023/06/04 01:00:00,6.3,0,100,0,996.7,0,999.6,0,1.4,0,�쐼,0,2.6,0,���쐼,0,0,0,�Ȃ�,0,0.0,0,,,,,,,,
�k�C���X�y�[�X�|�[�g(�����),2023/06/04 02:00:00,6.3,0,100,0,997.0,0,999.9,0,0.7,0,�k�k��,0,3.9,0,���쐼,0,0,0,�Ȃ�,0,0.0,0,,,,,,,,
�k�C���X�y�[�X�|�[�g(�����),2023/06/04 03:00:00,6.1,0,100,0,997.4,0,1000.3,0,1.7,0,���쐼,0,2.4,0,��,0,0,0,�Ȃ�,0,0.0,0,,,,,,,,
�k�C���X�y�[�X�|�[�g(�����),2023/06/04 04:00:00,5.1,0,100,0,997.9,0,1000.8,0,0.5,0,�k�k��,0,2.3,0,���쐼,0,0,0,�Ȃ�,0,0.0,0,,,,,,,,
�k�C���X�y�[�X�|�[�g(�����),2023/06/04 05:00:00,5.8,0,100,0,998.4,0,1001.3,0,1.0,0,�쐼,0,2.7,0,�쐼,0,32,0,�Ȃ�,0,0.0,0,,,,,,,,
�k�C���X�y�[�X�|�[�g(�����),2023/06/04 06:00:00,9.3,0,100,0,998.4,0,1001.3,0,1.2,0,��,0,2.7,0,���쐼,0,116,0,�Ȃ�,0,0.0,0,,,,,,,,
�k�C���X�y�[�X�|�[�g(�����),2023/06/04 07:00:00,10.7,0,83,0,998.3,0,1001.2,0,1.9,0,��쓌,0,3.2,0,��,0,251,0,�Ȃ�,0,0.0,0,,,,,,,,
�k�C���X�y�[�X�|�[�g(�����),2023/06/04 08:00:00,11.7,0,80,0,998.3,0,1001.2,0,1.2,0,��쓌,0,3.1,0,��,0,298,0,�Ȃ�,0,0.0,0,,,,,,,,
�k�C���X�y�[�X�|�[�g(�����),2023/06/04 09:00:00,10.4,0,86,0,998.1,0,1001.0,0,2.0,0,���쓌,0,2.8,0,�쓌,0,191,0,�Ȃ�,0,0.0,0,,,,,,,,
�k�C���X�y�[�X�|�[�g(�����),2023/06/04 10:00:00,11.6,0,81,0,997.7,0,1000.6,0,1.3,0,���k��,0,3.5,0,��,0,548,0,�Ȃ�,0,0.0,0,,,,,,,,
�k�C���X�y�[�X�|�[�g(�����),2023/06/04 11:00:00,10.2,0,91,0,997.1,0,1000.0,0,2.6,0,���쓌,0,4.2,0,���쓌,0,399,0,����,0,1.5,0,,,,,,,,
�k�C���X�y�[�X�|�[�g(�����),2023/06/04 12:00:00,11.8,0,100,0,996.6,0,999.5,0,1.7,0,�쓌,0,3.6,0,���k��,0,173,0,����,0,1.0,0,,,,,,,,
�k�C���X�y�[�X�|�[�g(�����),2023/06/04 13:00:00,13.1,0,97,0,995.5,0,998.3,0,4.9,0,��쐼,0,9.7,0,�쐼,0,308,0,����,0,0.0,0,,,,,,,,
�k�C���X�y�[�X�|�[�g(�����),2023/06/04 14:00:00,14.7,0,87,0,994.7,0,997.5,0,3.7,0,��,0,9.0,0,��,0,615,0,����,0,0.0,0,,,,,,,,
�k�C���X�y�[�X�|�[�g(�����),2023/06/04 15:00:00,14.4,0,81,0,994.3,0,997.1,0,3.8,0,��쓌,0,5.9,0,��,0,436,0,�Ȃ�,0,0.0,0,,,,,,,,
�k�C���X�y�[�X�|�[�g(�����),2023/06/04 16:00:00,15.0,0,77,0,994.2,0,997.0,0,2.8,0,��,0,6.5,0,��,0,161,0,�Ȃ�,0,0.0,0,,,,,,,,
�k�C���X�y�[�X�|�[�g(�����),2023/06/04 17:00:00,16.5,0,76,0,994.7,0,997.5,0,3.2,0,���k��,0,11.5,0,���쐼,0,98,0,����,0,0.0,0,,,,,,,,
�k�C���X�y�[�X�|�[�g(�����),2023/06/04 18:00:00,15.5,0,81,0,995.4,0,998.2,0,2.6,0,�k��,0,7.9,0,�k�k��,0,111,0,�Ȃ�,0,0.0,0,,,,,,,,
�k�C���X�y�[�X�|�[�g(�����),2023/06/04 19:00:00,13.7,0,87,0,996.3,0,999.1,0,1.0,0,�쐼,0,4.9,0,���k��,0,14,0,�Ȃ�,0,0.0,0,,,,,,,,
�k�C���X�y�[�X�|�[�g(�����),2023/06/04 20:00:00,11.5,0,97,0,996.9,0,999.8,0,0.3,0,���k��,0,2.5,0,��쓌,0,0,0,�Ȃ�,0,0.0,0,,,,,,,,
�k�C���X�y�[�X�|�[�g(�����),2023/06/04 21:00:00,10.4,0,100,0,997.5,0,1000.4,0,0.9,0,���쐼,0,3.6,0,��,0,0,0,�Ȃ�,0,0.0,0,,,,,,,,
�k�C���X�y�[�X�|�[�g(�����),2023/06/04 22:00:00,9.6,0,100,0,997.7,0,1000.6,0,0.9,0,���k��,0,2.7,0,���쐼,0,0,0,�Ȃ�,0,0.0,0,,,,,,,,
�k�C���X�y�[�X�|�[�g(�����),2023/06/04 23:00:00,8.7,0,100,0,998.1,0,1001.0,0,1.5,0,���쐼,0,2.8,0,���쐼,0,0,0,�Ȃ�,0,0.0,0,,,,,,,,
�k�C���X�y�[�X�|�[�g(�����),2023/06/05 00:00:00,9.2,0,94,0,998.3,0,1001.2,0,2.0,0,���k��,0,2.8,0,���k��,0,0,0,�Ȃ�,0,0.0,0,,,,,,,,
�k�C���X�y�[�X�|�[�g(�����),2023/06/05 01:00:00,7.8,0,92,0,998.4,0,1001.3,0,2.1,0,���쐼,0,3.0,0,���쐼,0,0,0,�Ȃ�,0,0.0,0,,,,,,,,
�k�C���X�y�[�X�|�[�g(�����),2023/06/05 02:00:00,7.1,0,96,0,998.7,0,1001.6,0,1.8,0,���쐼,0,3.1,0,���쐼,0,0,0,�Ȃ�,0,0.0,0,,,,,,,,
�k�C���X�y�[�X�|�[�g(�����),2023/06/05 03:00:00,4.8,0,98,0,999.0,0,1001.9,0,1.6,0,��,0,3.2,0,�쐼,0,0,0,�Ȃ�,0,0.0,0,,,,,,,,
�k�C���X�y�[�X�|�[�g(�����),2023/06/05 04:00:00,5.4,0,100,0,999.2,0,1002.1,0,0.8,0,���k��,0,2.5,0,���쐼,0,0,0,�Ȃ�,0,0.0,0,,,,,,,,
�k�C���X�y�[�X�|�[�g(�����),2023/06/05 05:00:00,6.2,0,100,0,999.6,0,1002.5,0,0.7,0,���쐼,0,2.9,0,�쐼,0,36,0,�Ȃ�,0,0.0,0,,,,,,,,
�k�C���X�y�[�X�|�[�g(�����),2023/06/05 06:00:00,9.3,0,95,0,999.9,0,1002.8,0,1.1,0,��,0,2.8,0,���쐼,0,119,0,����,0,0.0,0,,,,,,,,
�k�C���X�y�[�X�|�[�g(�����),2023/06/05 07:00:00,14.1,0,62,0,1000.2,0,1003.0,0,0.5,0,�k,0,2.1,0,�k��,0,267,0,����,0,0.0,0,,,,,,,,
�k�C���X�y�[�X�|�[�g(�����),2023/06/05 08:00:00,12.8,0,60,0,1000.2,0,1003.1,0,2.1,0,���쓌,0,4.1,0,��,0,471,0,�Ȃ�,0,0.0,0,,,,,,,,
�k�C���X�y�[�X�|�[�g(�����),2023/06/05 09:00:00,13.2,0,58,0,1000.3,0,1003.2,0,3.4,0,���쓌,0,4.9,0,��,0,695,0,�Ȃ�,0,0.0,0,,,,,,,,
�k�C���X�y�[�X�|�[�g(�����),2023/06/05 10:00:00,13.4,0,60,0,1000.6,0,1003.5,0,3.1,0,���쓌,0,4.9,0,���쓌,0,848,0,�Ȃ�,0,0.0,0,,,,,,,,
�k�C���X�y�[�X�|�[�g(�����),2023/06/05 11:00:00,15.4,0,49,0,1000.3,0,1003.1,0,2.6,0,���쓌,0,4.6,0,���쓌,0,690,0,�Ȃ�,0,0.0,0,,,,,,,,
�k�C���X�y�[�X�|�[�g(�����),2023/06/05 12:00:00,16.6,0,48,0,1000.4,0,1003.2,0,3.2,0,�쓌,0,5.7,0,��쓌,0,1052,0,�Ȃ�,0,0.0,0,,,,,,,,
�k�C���X�y�[�X�|�[�g(�����),2023/06/05 13:00:00,15.3,0,51,0,1000.5,0,1003.3,0,3.1,0,��,0,6.0,0,��,0,626,0,�Ȃ�,0,0.0,0,,,,,,,,
�k�C���X�y�[�X�|�[�g(�����),2023/06/05 14:00:00,17.7,0,48,0,1000.9,0,1003.7,0,3.2,0,�쐼,0,5.6,0,��,0,380,0,�Ȃ�,0,0.0,0,,,,,,,,
�k�C���X�y�[�X�|�[�g(�����),2023/06/05 15:00:00,18.6,0,46,0,1001.0,0,1003.8,0,1.7,0,��,0,4.6,0,���쐼,0,323,0,�Ȃ�,0,0.0,0,,,,,,,,
�k�C���X�y�[�X�|�[�g(�����),2023/06/05 16:00:00,19.0,0,44,0,1001.4,0,1004.2,0,3.1,0,��쓌,0,5.0,0,�쓌,0,456,0,�Ȃ�,0,0.0,0,,,,,,,,
�k�C���X�y�[�X�|�[�g(�����),2023/06/05 17:00:00,18.2,0,48,0,1001.6,0,1004.4,0,1.0,0,�쓌,0,4.2,0,�쓌,0,92,0,�Ȃ�,0,0.0,0,,,,,,,,
�k�C���X�y�[�X�|�[�g(�����),2023/06/05 18:00:00,16.7,0,50,0,1002.1,0,1004.9,0,1.5,0,��,0,2.7,0,��쓌,0,134,0,�Ȃ�,0,0.0,0,,,,,,,,
�k�C���X�y�[�X�|�[�g(�����),2023/06/05 19:00:00,14.7,0,64,0,1002.4,0,1005.2,0,0.7,0,�k,0,1.9,0,���k��,0,19,0,�Ȃ�,0,0.0,0,,,,,,,,
�k�C���X�y�[�X�|�[�g(�����),2023/06/05 20:00:00,13.1,0,73,0,1002.9,0,1005.8,0,0.7,0,���k��,0,2.4,0,��쐼,0,0,0,�Ȃ�,0,0.0,0,,,,,,,,
�k�C���X�y�[�X�|�[�g(�����),2023/06/05 21:00:00,11.6,0,84,0,1003.1,0,1006.0,0,0.6,0,���쐼,0,2.7,0,���쓌,0,0,0,����,0,0.0,0,,,,,,,,
�k�C���X�y�[�X�|�[�g(�����),2023/06/05 22:00:00,10.5,0,89,0,1003.0,0,1005.9,0,0.6,0,�k�k��,0,2.4,0,�k�k��,0,0,0,�Ȃ�,0,0.0,0,,,,,,,,
�k�C���X�y�[�X�|�[�g(�����),2023/06/05 23:00:00,10.0,0,94,0,1003.2,0,1006.1,0,0.6,0,�쓌,0,2.7,0,�k�k��,0,0,0,�Ȃ�,0,0.0,0,,,,,,,,
�k�C���X�y�[�X�|�[�g(�����),2023/06/06 00:00:00,10.0,0,98,0,1003.1,0,1006.0,0,1.9,0,���k��,0,2.8,0,���k��,0,0,0,�Ȃ�,0,0.0,0,,,,,,,,
�k�C���X�y�[�X�|�[�g(�����),2023/06/06 01:00:00,9.0,0,93,0,1003.1,0,1006.0,0,1.0,0,���k��,0,2.4,0,�k��,0,0,0,�Ȃ�,0,0.0,0,,,,,,,,
�k�C���X�y�[�X�|�[�g(�����),2023/06/06 02:00:00,8.9,0,93,0,1003.3,0,1006.2,0,0.5,0,�k�k��,0,2.5,0,���쐼,0,0,0,�Ȃ�,0,0.0,0,,,,,,,,
�k�C���X�y�[�X�|�[�g(�����),2023/06/06 03:00:00,9.4,0,94,0,1003.7,0,1006.6,0,1.4,0,�k�k��,0,4.1,0,�k�k��,0,0,0,�Ȃ�,0,0.0,0,,,,,,,,
�k�C���X�y�[�X�|�[�g(�����),2023/06/06 04:00:00,9.6,0,92,0,1003.9,0,1006.8,0,0.7,0,�k�k��,0,5.1,0,�k�k��,0,0,0,�Ȃ�,0,0.0,0,,,,,,,,
�k�C���X�y�[�X�|�[�g(�����),2023/06/06 05:00:00,9.8,0,92,0,1004.4,0,1007.3,0,1.6,0,���쐼,0,3.3,0,�k�k��,0,34,0,�Ȃ�,0,0.0,0,,,,,,,,
�k�C���X�y�[�X�|�[�g(�����),2023/06/06 06:00:00,13.1,0,86,0,1004.5,0,1007.4,0,0.5,0,��,0,2.2,0,�쐼,0,119,0,����,0,0.0,0,,,,,,,,
�k�C���X�y�[�X�|�[�g(�����),2023/06/06 07:00:00,13.8,0,82,0,1004.9,0,1007.8,0,0.9,0,���k��,0,1.8,0,���k��,0,169,0,�Ȃ�,0,0.0,0,,,,,,,,
�k�C���X�y�[�X�|�[�g(�����),2023/06/06 08:00:00,15.3,0,70,0,1004.7,0,1007.5,0,1.6,0,��,0,4.0,0,���쓌,0,449,0,�Ȃ�,0,0.0,0,,,,,,,,
�k�C���X�y�[�X�|�[�g(�����),2023/06/06 09:00:00,14.8,0,71,0,1004.6,0,1007.5,0,2.8,0,��,0,3.9,0,��,0,656,0,�Ȃ�,0,0.0,0,,,,,,,,
�k�C���X�y�[�X�|�[�g(�����),2023/06/06 10:00:00,15.0,0,73,0,1004.4,0,1007.2,0,2.7,0,��,0,4.8,0,��,0,868,0,�Ȃ�,0,0.0,0,,,,,,,,
�k�C���X�y�[�X�|�[�g(�����),2023/06/06 11:00:00,14.2,0,78,0,1004.2,0,1007.1,0,3.4,0,��,0,5.2,0,��,0,973,0,�Ȃ�,0,0.0,0,,,,,,,,
�k�C���X�y�[�X�|�[�g(�����),2023/06/06 12:00:00,15.7,0,77,0,1003.7,0,1006.5,0,2.6,0,���k��,0,5.1,0,��,0,908,0,�Ȃ�,0,0.0,0,,,,,,,,
�k�C���X�y�[�X�|�[�g(�����),2023/06/06 13:00:00,16.0,0,71,0,1003.4,0,1006.2,0,1.6,0,��,0,4.9,0,��,0,468,0,�Ȃ�,0,0.0,0,,,,,,,,
�k�C���X�y�[�X�|�[�g(�����),2023/06/06 14:00:00,16.0,0,63,0,1003.1,0,1005.9,0,3.6,0,��,0,5.9,0,��,0,697,0,�Ȃ�,0,0.0,0,,,,,,,,
�k�C���X�y�[�X�|�[�g(�����),2023/06/06 15:00:00,15.7,0,62,0,1002.9,0,1005.7,0,2.3,0,�쓌,0,5.4,0,��,0,704,0,�Ȃ�,0,0.0,0,,,,,,,,
�k�C���X�y�[�X�|�[�g(�����),2023/06/06 16:00:00,15.0,0,67,0,1002.7,0,1005.5,0,2.1,0,��쓌,0,5.6,0,��,0,343,0,�Ȃ�,0,0.0,0,,,,,,,,
�k�C���X�y�[�X�|�[�g(�����),2023/06/06 17:00:00,24.6,0,37,0,1002.6,0,1005.3,0,5.7,0,�쐼,0,9.0,0,�쐼,0,389,0,�Ȃ�,0,0.0,0,,,,,,,,
�k�C���X�y�[�X�|�[�g(�����),2023/06/06 18:00:00,22.2,0,44,0,1003.1,0,1005.9,0,5.8,0,���쐼,0,9.3,0,�쐼,0,144,0,�Ȃ�,0,0.0,0,,,,,,,,
�k�C���X�y�[�X�|�[�g(�����),2023/06/06 19:00:00,21.1,0,49,0,1003.8,0,1006.6,0,4.6,0,���쐼,0,8.1,0,���쐼,0,20,0,�Ȃ�,0,0.0,0,,,,,,,,
�k�C���X�y�[�X�|�[�g(�����),2023/06/06 20:00:00,16.0,0,65,0,1004.7,0,1007.5,0,0.9,0,���k��,0,5.4,0,�쐼,0,0,0,�Ȃ�,0,0.0,0,,,,,,,,
�k�C���X�y�[�X�|�[�g(�����),2023/06/06 21:00:00,16.6,0,68,0,1005.0,0,1007.8,0,1.9,0,�k��,0,5.9,0,���쓌,0,0,0,�Ȃ�,0,0.0,0,,,,,,,,
�k�C���X�y�[�X�|�[�g(�����),2023/06/06 22:00:00,15.3,0,74,0,1005.2,0,1008.0,0,3.0,0,�k�k��,0,4.1,0,�k�k��,0,0,0,�Ȃ�,0,0.0,0,,,,,,,,
�k�C���X�y�[�X�|�[�g(�����),2023/06/06 23:00:00,12.9,0,87,0,1005.8,0,1008.7,0,3.1,0,���k��,0,6.4,0,��,0,0,0,�Ȃ�,0,0.0,0,,,,,,,,
�k�C���X�y�[�X�|�[�g(�����),2023/06/07 00:00:00,13.1,0,91,0,1005.3,0,1008.2,0,1.9,0,�k�k��,0,5.1,0,�k��,0,0,0,�Ȃ�,0,0.0,0,,,,,,,,
�k�C���X�y�[�X�|�[�g(�����),2023/06/07 01:00:00,12.9,0,92,0,1004.9,0,1007.8,0,1.4,0,�k��,0,3.1,0,�k��,0,0,0,�Ȃ�,0,0.0,0,,,,,,,,
�k�C���X�y�[�X�|�[�g(�����),2023/06/07 02:00:00,13.2,0,93,0,1004.7,0,1007.6,0,1.3,0,�k�k��,0,3.6,0,�k�k��,0,0,0,�Ȃ�,0,0.0,0,,,,,,,,
�k�C���X�y�[�X�|�[�g(�����),2023/06/07 03:00:00,14.0,0,86,0,1004.5,0,1007.4,0,1.8,0,�k��,0,4.1,0,�k��,0,0,0,�Ȃ�,0,0.0,0,,,,,,,,
�k�C���X�y�[�X�|�[�g(�����),2023/06/07 04:00:00,13.9,0,89,0,1004.6,0,1007.5,0,1.9,0,�k�k��,0,3.9,0,�k��,0,0,0,�Ȃ�,0,0.0,0,,,,,,,,
�k�C���X�y�[�X�|�[�g(�����),2023/06/07 05:00:00,14.0,0,91,0,1004.9,0,1007.8,0,0.7,0,�k,0,3.2,0,�k�k��,0,10,0,�Ȃ�,0,0.0,0,,,,,,,,
�k�C���X�y�[�X�|�[�g(�����),2023/06/07 06:00:00,14.2,0,98,0,1004.9,0,1007.8,0,1.3,0,�k��,0,4.0,0,�k�k��,0,49,0,����,0,0.0,0,,,,,,,,
�k�C���X�y�[�X�|�[�g(�����),2023/06/07 07:00:00,14.2,0,100,0,1005.4,0,1008.3,0,1.6,0,�k�k��,0,3.7,0,�k��,0,71,0,����,0,0.0,0,,,,,,,,
�k�C���X�y�[�X�|�[�g(�����),2023/06/07 08:00:00,15.1,0,100,0,1005.2,0,1008.0,0,2.3,0,�k�k��,0,4.3,0,�k�k��,0,170,0,����,0,0.0,0,,,,,,,,
�k�C���X�y�[�X�|�[�g(�����),2023/06/07 09:00:00,15.4,0,90,0,1004.9,0,1007.7,0,4.1,0,��,0,5.4,0,��,0,318,0,����,0,0.0,0,,,,,,,,
�k�C���X�y�[�X�|�[�g(�����),2023/06/07 10:00:00,14.7,0,96,0,1005.0,0,1007.9,0,4.4,0,��,0,6.3,0,��,0,569,0,����,0,0.0,0,,,,,,,,
�k�C���X�y�[�X�|�[�g(�����),2023/06/07 11:00:00,14.1,0,94,0,1005.1,0,1008.0,0,5.4,0,��,0,7.6,0,��,0,703,0,����,0,0.0,0,,,,,,,,
�k�C���X�y�[�X�|�[�g(�����),2023/06/07 12:00:00,14.4,0,90,0,1005.1,0,1008.0,0,3.6,0,���쓌,0,6.9,0,��,0,747,0,�Ȃ�,0,0.0,0,,,,,,,,
�k�C���X�y�[�X�|�[�g(�����),2023/06/07 13:00:00,17.9,0,85,0,1004.7,0,1007.5,0,1.6,0,�쓌,0,3.4,0,�쓌,0,703,0,�Ȃ�,0,0.0,0,,,,,,,,
�k�C���X�y�[�X�|�[�g(�����),2023/06/07 14:00:00,18.7,0,78,0,1004.6,0,1007.4,0,2.0,0,�쓌,0,3.8,0,��쓌,0,862,0,�Ȃ�,0,0.0,0,,,,,,,,
�k�C���X�y�[�X�|�[�g(�����),2023/06/07 15:00:00,17.3,0,82,0,1004.4,0,1007.2,0,3.5,0,��쓌,0,5.6,0,�쓌,0,593,0,�Ȃ�,0,0.0,0,,,,,,,,
�k�C���X�y�[�X�|�[�g(�����),2023/06/07 16:00:00,18.8,0,79,0,1004.7,0,1007.5,0,0.8,0,�쓌,0,5.0,0,��,0,429,0,�Ȃ�,0,0.0,0,,,,,,,,
�k�C���X�y�[�X�|�[�g(�����),2023/06/07 17:00:00,14.8,0,93,0,1004.8,0,1007.7,0,2.2,0,���쓌,0,3.4,0,��,0,134,0,����,0,0.0,0,,,,,,,,
�k�C���X�y�[�X�|�[�g(�����),2023/06/07 18:00:00,14.0,0,100,0,1005.9,0,1008.8,0,2.1,0,���k��,0,3.4,0,��,0,46,0,����,0,0.0,0,,,,,,,,
�k�C���X�y�[�X�|�[�g(�����),2023/06/07 19:00:00,13.7,0,100,0,1006.1,0,1009.0,0,2.2,0,���k��,0,3.8,0,���k��,0,10,0,����,0,0.0,0,,,,,,,,
�k�C���X�y�[�X�|�[�g(�����),2023/06/07 20:00:00,13.8,0,100,0,1007.0,0,1009.9,0,1.3,0,���k��,0,2.8,0,��,0,0,0,�Ȃ�,0,0.0,0,,,,,,,,
�k�C���X�y�[�X�|�[�g(�����),2023/06/07 21:00:00,13.7,0,100,0,1007.5,0,1010.4,0,1.2,0,�k��,0,3.1,0,���k��,0,0,0,�Ȃ�,0,0.0,0,,,,,,,,
�k�C���X�y�[�X�|�[�g(�����),2023/06/07 22:00:00,13.9,0,100,0,1007.6,0,1010.5,0,1.3,0,�k�k��,0,2.0,0,�k�k��,0,0,0,�Ȃ�,0,0.0,0,,,,,,,,
�k�C���X�y�[�X�|�[�g(�����),2023/06/07 23:00:00,13.9,0,100,0,1007.7,0,1010.6,0,1.1,0,�k�k��,0,2.4,0,�k�k��,0,0,0,�Ȃ�,0,0.0,0,,,,,,,,
�k�C���X�y�[�X�|�[�g(�����),2023/06/08 00:00:00,13.8,0,100,0,1007.7,0,1010.6,0,0.7,0,��,0,2.1,0,�k�k��,0,0,0,�Ȃ�,0,0.0,0,,,,,,,,
�k�C���X�y�[�X�|�[�g(�����),2023/06/08 01:00:00,13.1,0,100,0,1007.9,0,1010.8,0,1.0,0,�쓌,0,1.9,0,��쓌,0,0,0,�Ȃ�,0,0.0,0,,,,,,,,
�k�C���X�y�[�X�|�[�g(�����),2023/06/08 02:00:00,12.9,0,100,0,1008.7,0,1011.6,0,1.0,0,��,0,2.4,0,���k��,0,0,0,�Ȃ�,0,0.0,0,,,,,,,,
�k�C���X�y�[�X�|�[�g(�����),2023/06/08 03:00:00,13.1,0,100,0,1008.8,0,1011.7,0,1.2,0,��,0,2.5,0,���k��,0,0,0,�Ȃ�,0,0.0,0,,,,,,,,
�k�C���X�y�[�X�|�[�g(�����),2023/06/08 04:00:00,13.3,0,100,0,1009.3,0,1012.2,0,0.3,0,�k��,0,1.6,0,�k��,0,0,0,�Ȃ�,0,0.0,0,,,,,,,,
�k�C���X�y�[�X�|�[�g(�����),2023/06/08 05:00:00,13.4,0,100,0,1009.9,0,1012.8,0,0.6,0,��,0,1.4,0,��,0,21,0,�Ȃ�,0,0.0,0,,,,,,,,
�k�C���X�y�[�X�|�[�g(�����),2023/06/08 06:00:00,14.2,0,100,0,1010.1,0,1013.0,0,1.4,0,��,0,2.3,0,��,0,96,0,����,0,0.0,0,,,,,,,,
�k�C���X�y�[�X�|�[�g(�����),2023/06/08 07:00:00,15.3,0,100,0,1010.5,0,1013.4,0,1.6,0,���k��,0,2.6,0,�k�k��,0,190,0,����,0,0.0,0,,,,,,,,
�k�C���X�y�[�X�|�[�g(�����),2023/06/08 08:00:00,17.8,0,100,0,1010.4,0,1013.2,0,1.2,0,�k,0,3.1,0,���쐼,0,428,0,�Ȃ�,0,0.0,0,,,,,,,,
�k�C���X�y�[�X�|�[�g(�����),2023/06/08 09:00:00,21.1,0,69,0,1010.4,0,1013.2,0,3.3,0,���k��,0,5.8,0,���k��,0,676,0,�Ȃ�,0,0.0,0,,,,,,,,
�k�C���X�y�[�X�|�[�g(�����),2023/06/08 10:00:00,17.9,0,77,0,1010.7,0,1013.5,0,3.9,0,��,0,6.0,0,��,0,880,0,�Ȃ�,0,0.0,0,,,,,,,,
�k�C���X�y�[�X�|�[�g(�����),2023/06/08 11:00:00,14.8,0,88,0,1011.3,0,1014.2,0,4.0,0,�쓌,0,6.7,0,�쓌,0,1026,0,�Ȃ�,0,0.0,0,,,,,,,,
�k�C���X�y�[�X�|�[�g(�����),2023/06/08 12:00:00,14.7,0,91,0,1011.3,0,1014.2,0,2.9,0,�쓌,0,6.2,0,���쓌,0,1034,0,�Ȃ�,0,0.0,0,,,,,,,,
�k�C���X�y�[�X�|�[�g(�����),2023/06/08 13:00:00,15.8,0,88,0,1010.8,0,1013.7,0,2.9,0,��,0,5.0,0,�쓌,0,1036,0,�Ȃ�,0,0.0,0,,,,,,,,
�k�C���X�y�[�X�|�[�g(�����),2023/06/08 14:00:00,16.3,0,83,0,1011.0,0,1013.9,0,2.6,0,��쓌,0,5.2,0,�쓌,0,925,0,�Ȃ�,0,0.0,0,,,,,,,,
�k�C���X�y�[�X�|�[�g(�����),2023/06/08 15:00:00,16.2,0,85,0,1011.4,0,1014.3,0,2.9,0,�쓌,0,5.2,0,�쓌,0,739,0,�Ȃ�,0,0.0,0,,,,,,,,